This is the latest recevied weather packets stored in our database for station/object W2TAO. If no packets are shown the sender has not sent any weather packets the latest 10 day(s).
| Time | Temp. | Humidity | Pressure | Rain* | Wind** | Luminosity | Snow |
|---|---|---|---|---|---|---|---|
| 1777671289 | 13.33° C | 49% | 1011.8 hPa | 0 mm | - | 77 W/m² | - |
| 1777670984 | 13.33° C | 48% | 1011.8 hPa | 0 mm | - | 79 W/m² | - |
| 1777670681 | 13.33° C | 47% | 1011.7 hPa | 0 mm | - | 69 W/m² | - |
| 1777670378 | 13.33° C | 55% | 1011.8 hPa | 0 mm | - | 68 W/m² | - |
| 1777670076 | 13.33° C | 50% | 1011.5 hPa | 0 mm | - | 76 W/m² | - |
| 1777669773 | 13.33° C | 47% | 1011.6 hPa | 0 mm | - | 64 W/m² | - |
| 1777669470 | 13.89° C | 47% | 1011.5 hPa | 0 mm | - | 43 W/m² | - |
| 1777669166 | 13.89° C | 47% | 1011.4 hPa | 0 mm | - | 46 W/m² | - |
| 1777668863 | 13.89° C | 45% | 1011.4 hPa | 0 mm | - | 53 W/m² | - |
| 1777668560 | 13.89° C | 45% | 1011.3 hPa | 0 mm | - | 98 W/m² | - |
| 1777668256 | 13.89° C | 45% | 1011.4 hPa | 0 mm | - | 96 W/m² | - |
| 1777667952 | 13.89° C | 43% | 1011.3 hPa | 0 mm | - | 96 W/m² | - |
| 1777667650 | 14.44° C | 42% | 1011.3 hPa | 0 mm | - | 113 W/m² | - |
| 1777667347 | 14.44° C | 48% | 1011.3 hPa | 0 mm | - | 125 W/m² | - |
| 1777667044 | 14.44° C | 43% | 1011.3 hPa | 0 mm | - | 166 W/m² | - |
| 1777666740 | 15° C | 42% | 1011.5 hPa | 0 mm | - | 180 W/m² | - |
| 1777666437 | 15° C | 44% | 1011.4 hPa | 0 mm | - | 348 W/m² | - |
| 1777666134 | 16.11° C | 43% | 1011.3 hPa | 0 mm | - | 251 W/m² | - |
| 1777665831 | 14.44° C | 45% | 1011.5 hPa | 0 mm | - | 694 W/m² | - |
| 1777665529 | 14.44° C | 44% | 1011.5 hPa | 0 mm | - | 181 W/m² | - |
| 1777665224 | 14.44° C | 48% | 1011.7 hPa | 0 mm | - | 210 W/m² | - |
| 1777664921 | 13.89° C | 44% | 1011.8 hPa | 0 mm | - | 170 W/m² | - |
| 1777664617 | 13.89° C | 42% | 1011.7 hPa | 0 mm | - | 150 W/m² | - |
| 1777664313 | 14.44° C | 42% | 1011.8 hPa | 0 mm | - | 151 W/m² | - |
| 1777664012 | 16.67° C | 38% | 1011.7 hPa | 0 mm | - | 762 W/m² | - |
* Rain latest hour (hover to see other rain measurements)
** Current wind speed in m/s (hover to see current wind gust speed)